Location: Albany
(35.0000°S, 118.0000°E)
Time: 11:33:54
(UTC-04:00)

Transit 2A - Visible Passes

Search period start: 20 August 2017 00:00
Search period end: 30 August 2017 00:00
Orbit: 595 x 964 km, 66.7° (Epoch: 20 August)

Date Brightness Start Highest point End Pass type
(mag) Time Alt. Az. Time Alt. Az. Time Alt. Az.
20 Aug 6.9 17:30:51 10° NNW 17:36:58 63° ENE 17:42:39 10° SE visible
21 Aug 7.5 16:57:12 10° N 17:03:00 43° ENE 17:08:25 10° SE visible
22 Aug 8.1 16:23:52 10° NNE 16:29:04 29° ENE 16:33:59 10° SE visible
22 Aug 6.7 18:06:28 10° NW 18:12:09 40° WSW 18:17:28 10° S visible
23 Aug 8.6 15:50:58 10° NNE 15:55:12 20° ENE 15:59:16 10° ESE visible
23 Aug 6.3 17:32:01 10° NW 17:38:03 57° WSW 17:43:39 10° SSE visible
24 Aug 9.0 15:18:54 10° NE 15:21:22 13° ENE 15:23:46 10° E visible
24 Aug 6.2 16:58:17 12° NNW 17:04:00 83° WSW 17:09:43 10° SSE visible
25 Aug 6.5 16:27:09 32° N 16:30:00 69° ENE 16:35:40 10° SSE visible
26 Aug 7.1 15:55:28 45° NE 15:56:01 46° ENE 16:01:29 10° SE visible
26 Aug 7.2 17:36:03 16° W 17:39:23 26° SW 17:44:00 10° S visible
27 Aug 8.0 15:23:26 28° E 15:23:26 28° E 15:27:06 10° SE visible
27 Aug 6.8 17:04:00 33° W 17:05:13 36° WSW 17:10:22 10° S visible
28 Aug 8.8 14:51:09 15° ESE 14:51:09 15° ESE 14:52:27 10° ESE visible
28 Aug 6.5 16:31:42 50° SW 16:31:42 50° SW 16:36:35 10° SSE visible
29 Aug 7.1 15:59:14 40° SSE 15:59:14 40° SSE 16:02:41 10° SSE visible
29 Aug 8.0 17:39:45 11° WSW 17:41:01 12° SW 17:42:54 10° SSW visible
